| time (UTC) | temp F | wind direction | speed MPH | gust MPH | rain 1hr in | rain 24hr in | rain mn in | humidity % | barometer mb |
| 20260503055035 | 54 | 9 | 2.0 | 8.0 | 0.00 | 0.00 | 0.00 | 58 | 1009.7 |
| 20260503054540 | 54 | 336 | 1.0 | 5.0 | 0.00 | 0.00 | 0.00 | 59 | 1009.7 |
| 20260503054035 | 55 | 327 | 2.0 | 5.0 | 0.00 | 0.00 | 0.00 | 57 | 1009.7 |
| 20260503053535 | 56 | 336 | 1.0 | 7.0 | 0.00 | 0.00 | 0.00 | 55 | 1009.8 |
| 20260503053035 | 56 | 319 | 1.0 | 7.0 | 0.00 | 0.00 | 0.00 | 52 | 1009.9 |
| 20260503052537 | 57 | 300 | 0.0 | 4.0 | 0.00 | 0.00 | 0.00 | 52 | 1009.9 |
| 20260503052034 | 57 | 220 | 1.0 | 5.0 | 0.00 | 0.00 | 0.00 | 50 | 1009.9 |
| 20260503051534 | 58 | 130 | 1.0 | 10.0 | 0.00 | 0.00 | 0.00 | 49 | 1009.9 |
| 20260503051036 | 58 | 212 | 6.0 | 12.0 | 0.00 | 0.00 | 0.00 | 48 | 1009.8 |
| 20260503050534 | 57 | 232 | 5.0 | 12.0 | 0.00 | 0.00 | 0.00 | 48 | 1009.7 |
| 20260503050034 | 57 | 240 | 5.0 | 11.0 | 0.00 | 0.00 | 0.00 | 49 | 1009.7 |
| 20260503045535 | 56 | 244 | 7.0 | 11.0 | 0.00 | 0.00 | 0.00 | 50 | 1009.7 |
| 20260503045033 | 56 | 257 | 2.0 | 8.0 | 0.00 | 0.00 | 0.00 | 53 | 1009.6 |
| 20260503044535 | 56 | 235 | 4.0 | 8.0 | 0.00 | 0.00 | 0.00 | 53 | 1009.4 |
| 20260503044033 | 55 | 288 | 4.0 | 11.0 | 0.00 | 0.00 | 0.00 | 55 | 1009.2 |
| 20260503043533 | 55 | 301 | 1.0 | 11.0 | 0.00 | 0.00 | 0.00 | 59 | 1009.1 |
| 20260503043033 | 55 | 19 | 4.0 | 8.0 | 0.00 | 0.00 | 0.00 | 59 | 1008.9 |
| 20260503042532 | 55 | 311 | 5.0 | 12.0 | 0.00 | 0.00 | 0.00 | 59 | 1008.6 |
| 20260503042032 | 56 | 327 | 5.0 | 12.0 | 0.00 | 0.00 | 0.00 | 58 | 1008.5 |
| 20260503041531 | 56 | 313 | 7.0 | 12.0 | 0.00 | 0.00 | 0.00 | 56 | 1008.5 |
| 20260503041032 | 57 | 300 | 6.0 | 12.0 | 0.00 | 0.00 | 0.00 | 54 | 1008.3 |
| 20260503040533 | 57 | 310 | 5.0 | 11.0 | 0.00 | 0.00 | 0.00 | 52 | 1008.1 |
| 20260503040030 | 57 | 304 | 5.0 | 11.0 | 0.00 | 0.00 | 0.00 | 52 | 1008.1 |
| 20260503035531 | 57 | 317 | 5.0 | 12.0 | 0.00 | 0.00 | 0.00 | 52 | 1008.0 |
| 20260503035031 | 57 | 297 | 7.0 | 13.0 | 0.00 | 0.00 | 0.00 | 51 | 1007.8 |
| 20260503034530 | 58 | 311 | 8.0 | 13.0 | 0.00 | 0.00 | 0.00 | 50 | 1007.9 |
| 20260503034030 | 58 | 311 | 5.0 | 11.0 | 0.00 | 0.00 | 0.00 | 50 | 1007.9 |
| 20260503033530 | 59 | 304 | 4.0 | 9.0 | 0.00 | 0.00 | 0.00 | 47 | 1007.9 |
| 20260503033041 | 59 | 310 | 2.0 | 12.0 | 0.00 | 0.00 | 0.00 | 47 | 1007.9 |
| 20260503032529 | 59 | 313 | 5.0 | 16.0 | 0.00 | 0.00 | 0.00 | 47 | 1007.8 |
| 20260503032029 | 60 | 315 | 10.0 | 16.0 | 0.00 | 0.00 | 0.00 | 45 | 1007.8 |
| 20260503031529 | 60 | 308 | 4.0 | 13.0 | 0.00 | 0.00 | 0.00 | 44 | 1007.7 |
| 20260503031030 | 61 | 331 | 6.0 | 14.0 | 0.00 | 0.00 | 0.00 | 42 | 1007.7 |
| 20260503030529 | 62 | 281 | 6.0 | 11.0 | 0.00 | 0.00 | 0.00 | 40 | 1007.5 |
| 20260503030029 | 63 | 280 | 2.0 | 8.0 | 0.00 | 0.00 | 0.00 | 37 | 1007.6 |
| 20260503025528 | 63 | 265 | 4.0 | 19.0 | 0.00 | 0.00 | 0.00 | 36 | 1007.7 |
| 20260503025028 | 64 | 275 | 11.0 | 19.0 | 0.00 | 0.00 | 0.00 | 34 | 1007.5 |
| 20260503024528 | 63 | 301 | 10.0 | 14.0 | 0.00 | 0.00 | 0.00 | 34 | 1007.3 |
| 20260503024029 | 63 | 251 | 2.0 | 14.0 | 0.00 | 0.00 | 0.00 | 36 | 1006.9 |
| 20260503023528 | 63 | 241 | 3.0 | 14.0 | 0.00 | 0.00 | 0.00 | 37 | 1007.0 |
| 20260503023028 | 63 | 245 | 10.0 | 14.0 | 0.00 | 0.00 | 0.00 | 36 | 1006.8 |
| 20260503022527 | 63 | 267 | 6.0 | 14.0 | 0.00 | 0.00 | 0.00 | 38 | 1006.7 |
| 20260503022027 | 63 | 245 | 7.0 | 14.0 | 0.00 | 0.00 | 0.00 | 41 | 1006.7 |
| 20260503021529 | 64 | 234 | 8.0 | 12.0 | 0.00 | 0.00 | 0.00 | 41 | 1006.7 |
| 20260503021027 | 64 | 251 | 8.0 | 13.0 | 0.00 | 0.00 | 0.00 | 39 | 1006.5 |
| 20260503020527 | 64 | 265 | 9.0 | 13.0 | 0.00 | 0.00 | 0.00 | 41 | 1006.5 |
| 20260503020027 | 65 | 226 | 7.0 | 16.0 | 0.00 | 0.00 | 0.00 | 40 | 1006.4 |
| 20260503015527 | 65 | 226 | 4.0 | 7.0 | 0.00 | 0.00 | 0.00 | 37 | 1006.4 |
| 20260503015029 | 65 | 244 | 4.0 | 8.0 | 0.00 | 0.00 | 0.00 | 36 | 1006.3 |
| 20260503014541 | 66 | 255 | 4.0 | 10.0 | 0.00 | 0.00 | 0.00 | 35 | 1006.4 |
| 20260503014027 | 66 | 245 | 4.0 | 10.0 | 0.00 | 0.00 | 0.00 | 34 | 1006.4 |
| 20260503013527 | 66 | 242 | 6.0 | 12.0 | 0.00 | 0.00 | 0.00 | 33 | 1006.4 |
| 20260503013033 | 66 | 246 | 6.0 | 12.0 | 0.00 | 0.00 | 0.00 | 33 | 1006.4 |
| 20260503012526 | 66 | 238 | 8.0 | 11.0 | 0.00 | 0.00 | 0.00 | 32 | 1006.5 |
| 20260503012025 | 66 | 252 | 7.0 | 11.0 | 0.00 | 0.00 | 0.00 | 32 | 1006.5 |
| 20260503011525 | 66 | 254 | 7.0 | 10.0 | 0.00 | 0.00 | 0.00 | 34 | 1006.5 |
| 20260503011025 | 67 | 252 | 6.0 | 9.0 | 0.00 | 0.00 | 0.00 | 33 | 1006.5 |
| 20260503010525 | 67 | 230 | 3.0 | 5.0 | 0.00 | 0.00 | 0.00 | 32 | 1006.6 |
| 20260503010025 | 67 | 247 | 2.0 | 4.0 | 0.00 | 0.00 | 0.00 | 31 | 1006.6 |
| 20260503005525 | 68 | 235 | 1.0 | 3.0 | 0.00 | 0.00 | 0.00 | 31 | 1006.4 |
| 20260503005025 | 68 | 215 | 1.0 | 7.0 | 0.00 | 0.00 | 0.00 | 30 | 1006.5 |
| 20260503004529 | 68 | 224 | 3.0 | 7.0 | 0.00 | 0.00 | 0.00 | 28 | 1006.4 |
| 20260503004025 | 68 | 235 | 5.0 | 8.0 | 0.00 | 0.00 | 0.00 | 28 | 1006.3 |
| 20260503003528 | 68 | 245 | 5.0 | 8.0 | 0.00 | 0.00 | 0.00 | 30 | 1006.3 |
| 20260503003024 | 68 | 227 | 1.0 | 6.0 | 0.00 | 0.00 | 0.00 | 31 | 1006.2 |
| 20260503002522 | 68 | 236 | 3.0 | 6.0 | 0.00 | 0.00 | 0.00 | 31 | 1006.3 |
| 20260503002022 | 68 | 253 | 4.0 | 10.0 | 0.00 | 0.00 | 0.00 | 31 | 1006.3 |
| 20260503001525 | 68 | 232 | 5.0 | 10.0 | 0.00 | 0.00 | 0.00 | 29 | 1006.4 |
| 20260503001024 | 68 | 230 | 5.0 | 9.0 | 0.00 | 0.00 | 0.00 | 29 | 1006.4 |
| 20260503000526 | 68 | 222 | 6.0 | 11.0 | 0.00 | 0.00 | 0.00 | 28 | 1006.4 |
| 20260503000023 | 69 | 215 | 7.0 | 12.0 | 0.00 | 0.00 | 0.00 | 26 | 1006.4 |
| 20260502235521 | 69 | 243 | 8.0 | 12.0 | 0.00 | 0.00 | 0.00 | 27 | 1006.4 |
| 20260502235022 | 69 | 261 | 6.0 | 11.0 | 0.00 | 0.00 | 0.00 | 29 | 1006.4 |
| 20260502234521 | 69 | 225 | 7.0 | 11.0 | 0.00 | 0.00 | 0.00 | 28 | 1006.4 |
| 20260502234022 | 69 | 213 | 7.0 | 11.0 | 0.00 | 0.00 | 0.00 | 28 | 1006.5 |
| 20260502233521 | 70 | 239 | 6.0 | 11.0 | 0.00 | 0.00 | 0.00 | 29 | 1006.5 |
| 20260502233020 | 69 | 209 | 5.0 | 9.0 | 0.00 | 0.00 | 0.00 | 26 | 1006.5 |
| 20260502232519 | 69 | 219 | 4.0 | 10.0 | 0.00 | 0.00 | 0.00 | 28 | 1006.6 |
| 20260502232018 | 69 | 233 | 4.0 | 10.0 | 0.00 | 0.00 | 0.00 | 27 | 1006.6 |
| 20260502231518 | 68 | 217 | 4.0 | 7.0 | 0.00 | 0.00 | 0.00 | 29 | 1006.8 |
| 20260502231018 | 68 | 221 | 2.0 | 8.0 | 0.00 | 0.00 | 0.00 | 28 | 1006.8 |
| 20260502230517 | 68 | 221 | 4.0 | 8.0 | 0.00 | 0.00 | 0.00 | 28 | 1006.9 |
| 20260502230017 | 68 | 224 | 5.0 | 11.0 | 0.00 | 0.00 | 0.00 | 28 | 1007.0 |
| 20260502225517 | 69 | 219 | 7.0 | 11.0 | 0.00 | 0.00 | 0.00 | 26 | 1007.0 |
| 20260502225016 | 70 | 207 | 6.0 | 9.0 | 0.00 | 0.00 | 0.00 | 27 | 1007.0 |
| 20260502224515 | 70 | 133 | 3.0 | 9.0 | 0.00 | 0.00 | 0.00 | 27 | 1007.1 |
| 20260502224014 | 70 | 225 | 1.0 | 6.0 | 0.00 | 0.00 | 0.00 | 31 | 1007.2 |
| 20260502223513 | 68 | 221 | 2.0 | 7.0 | 0.00 | 0.00 | 0.00 | 30 | 1007.3 |
| 20260502223012 | 67 | 208 | 3.0 | 7.0 | 0.00 | 0.00 | 0.00 | 30 | 1007.5 |
| 20260502222511 | 68 | 225 | 4.0 | 7.0 | 0.00 | 0.00 | 0.00 | 30 | 1007.6 |
| 20260502222011 | 68 | 232 | 2.0 | 6.0 | 0.00 | 0.00 | 0.00 | 30 | 1007.7 |
| 20260502221510 | 69 | 233 | 2.0 | 6.0 | 0.00 | 0.00 | 0.00 | 31 | 1007.6 |
| 20260502221010 | 69 | 167 | 2.0 | 7.0 | 0.00 | 0.00 | 0.00 | 29 | 1007.6 |
| 20260502220509 | 69 | 222 | 4.0 | 7.0 | 0.00 | 0.00 | 0.00 | 30 | 1007.6 |
| 20260502220008 | 70 | 217 | 2.0 | 6.0 | 0.00 | 0.00 | 0.00 | 29 | 1007.7 |
| 20260502215512 | 70 | 148 | 1.0 | 6.0 | 0.00 | 0.00 | 0.00 | 28 | 1007.7 |
| 20260502215007 | 69 | 237 | 1.0 | 6.0 | 0.00 | 0.00 | 0.00 | 29 | 1007.8 |
| 20260502214511 | 69 | 157 | 3.0 | 7.0 | 0.00 | 0.00 | 0.00 | 28 | 1007.9 |
| 20260502214005 | 69 | 213 | 4.0 | 7.0 | 0.00 | 0.00 | 0.00 | 29 | 1008.0 |
| 20260502213504 | 69 | 146 | 3.0 | 7.0 | 0.00 | 0.00 | 0.00 | 28 | 1008.1 |
| 20260502213003 | 69 | 224 | 2.0 | 7.0 | 0.00 | 0.00 | 0.00 | 30 | 1008.2 |
| 20260502212502 | 68 | 155 | 1.0 | 6.0 | 0.00 | 0.00 | 0.00 | 30 | 1008.1 |
| 20260502212002 | 69 | 222 | 1.0 | 5.0 | 0.00 | 0.00 | 0.00 | 30 | 1008.2 |
| 20260502211502 | 68 | 215 | 2.0 | 6.0 | 0.00 | 0.00 | 0.00 | 28 | 1008.3 |
| 20260502211001 | 68 | 163 | 0.0 | 7.0 | 0.00 | 0.00 | 0.00 | 27 | 1008.2 |
| 20260502210559 | 68 | 226 | 1.0 | 7.0 | 0.00 | 0.00 | 0.00 | 28 | 1008.3 |
| 20260502210110 | 67 | 214 | 3.0 | 7.0 | 0.00 | 0.00 | 0.00 | 27 | 1008.4 |
| 20260502205559 | 67 | 229 | 4.0 | 8.0 | 0.00 | 0.00 | 0.00 | 27 | 1008.5 |
| 20260502205059 | 66 | 223 | 5.0 | 8.0 | 0.00 | 0.00 | 0.00 | 28 | 1008.5 |
| 20260502204559 | 66 | 228 | 5.0 | 9.0 | 0.00 | 0.00 | 0.00 | 27 | 1008.5 |
| 20260502204059 | 66 | 217 | 4.0 | 11.0 | 0.00 | 0.00 | 0.00 | 27 | 1008.5 |
| 20260502203559 | 66 | 226 | 6.0 | 11.0 | 0.00 | 0.00 | 0.00 | 26 | 1008.5 |
| 20260502203104 | 66 | 249 | 7.0 | 11.0 | 0.00 | 0.00 | 0.00 | 28 | 1008.6 |
| 20260502202558 | 66 | 242 | 3.0 | 13.0 | 0.00 | 0.00 | 0.00 | 30 | 1008.5 |
| 20260502202059 | 66 | 229 | 7.0 | 13.0 | 0.00 | 0.00 | 0.00 | 27 | 1008.6 |
| 20260502201605 | 66 | 180 | 6.0 | 12.0 | 0.00 | 0.00 | 0.00 | 25 | 1008.6 |
| 20260502201058 | 67 | 205 | 6.0 | 9.0 | 0.00 | 0.00 | 0.00 | 24 | 1008.5 |
| 20260502200558 | 68 | 163 | 4.0 | 8.0 | 0.00 | 0.00 | 0.00 | 25 | 1008.4 |
| 20260502200057 | 68 | 212 | 4.0 | 9.0 | 0.00 | 0.00 | 0.00 | 27 | 1008.5 |
| 20260502195556 | 67 | 227 | 4.0 | 9.0 | 0.00 | 0.00 | 0.00 | 26 | 1008.6 |
| 20260502195054 | 67 | 222 | 1.0 | 7.0 | 0.00 | 0.00 | 0.00 | 27 | 1008.5 |
| 20260502194603 | 66 | 192 | 3.0 | 8.0 | 0.00 | 0.00 | 0.00 | 26 | 1008.5 |
| 20260502194054 | 65 | 236 | 3.0 | 9.0 | 0.00 | 0.00 | 0.00 | 26 | 1008.6 |
| 20260502193557 | 65 | 249 | 4.0 | 9.0 | 0.00 | 0.00 | 0.00 | 27 | 1008.7 |
| 20260502193054 | 65 | 217 | 5.0 | 9.0 | 0.00 | 0.00 | 0.00 | 26 | 1008.7 |
| 20260502192553 | 64 | 240 | 3.0 | 6.0 | 0.00 | 0.00 | 0.00 | 27 | 1008.8 |
| 20260502192052 | 64 | 223 | 4.0 | 8.0 | 0.00 | 0.00 | 0.00 | 25 | 1008.9 |
| 20260502191555 | 64 | 224 | 4.0 | 8.0 | 0.00 | 0.00 | 0.00 | 25 | 1008.8 |
| 20260502191052 | 65 | 215 | 3.0 | 7.0 | 0.00 | 0.00 | 0.00 | 25 | 1008.8 |
| 20260502190553 | 65 | 240 | 3.0 | 7.0 | 0.00 | 0.00 | 0.00 | 23 | 1008.8 |
| 20260502190053 | 65 | 224 | 3.0 | 8.0 | 0.00 | 0.00 | 0.00 | 25 | 1008.8 |
| 20260502185554 | 65 | 219 | 4.0 | 8.0 | 0.00 | 0.00 | 0.00 | 23 | 1008.8 |
| 20260502185052 | 65 | 218 | 1.0 | 6.0 | 0.00 | 0.00 | 0.00 | 22 | 1008.9 |
| 20260502184557 | 65 | 230 | 3.0 | 7.0 | 0.00 | 0.00 | 0.00 | 22 | 1008.9 |
| 20260502184052 | 65 | 207 | 4.0 | 8.0 | 0.00 | 0.00 | 0.00 | 21 | 1008.9 |
| 20260502183552 | 65 | 263 | 4.0 | 8.0 | 0.00 | 0.00 | 0.00 | 22 | 1008.9 |
| 20260502183104 | 66 | 290 | 1.0 | 6.0 | 0.00 | 0.00 | 0.00 | 22 | 1008.9 |
| 20260502182554 | 66 | 279 | 2.0 | 6.0 | 0.00 | 0.00 | 0.00 | 23 | 1008.9 |
| 20260502182050 | 66 | 228 | 1.0 | 6.0 | 0.00 | 0.00 | 0.00 | 21 | 1008.9 |
| 20260502181549 | 65 | 252 | 2.0 | 6.0 | 0.00 | 0.00 | 0.00 | 23 | 1008.9 |
| 20260502181049 | 65 | 142 | 2.0 | 5.0 | 0.00 | 0.00 | 0.00 | 22 | 1008.9 |
| 20260502180548 | 65 | 73 | 2.0 | 5.0 | 0.00 | 0.00 | 0.00 | 23 | 1008.8 |
| 20260502164033 | 58 | 19 | 0.0 | 2.0 | 0.00 | 0.00 | 0.00 | 51 | 1008.8 |
| 20260502163536 | 57 | 19 | 0.0 | 1.0 | 0.00 | 0.00 | 0.00 | 52 | 1008.8 |
| 20260502163041 | 57 | 19 | 0.0 | 1.0 | 0.00 | 0.00 | 0.00 | 51 | 1008.8 |
| 20260502162533 | 57 | 19 | 0.0 | 2.0 | 0.00 | 0.00 | 0.00 | 53 | 1008.7 |
| 20260502162034 | 57 | 19 | 0.0 | 4.0 | 0.00 | 0.00 | 0.00 | 51 | 1008.8 |
| 20260502161531 | 58 | 19 | 0.0 | 3.0 | 0.00 | 0.00 | 0.00 | 39 | 1008.8 |
| 20260502161031 | 58 | 19 | 0.0 | 1.0 | 0.00 | 0.00 | 0.00 | 29 | 1008.7 |
| 20260502160531 | 58 | 19 | 0.0 | 1.0 | 0.00 | 0.00 | 0.00 | 29 | 1008.7 |
| 20260502152019 | 53 | 28 | 4.0 | 7.0 | 0.00 | 0.00 | 0.00 | 49 | 1008.6 |
| 20260502151520 | 53 | 346 | 0.0 | 2.0 | 0.00 | 0.00 | 0.00 | 48 | 1008.6 |
| 20260502151018 | 52 | 288 | 0.0 | 2.0 | 0.00 | 0.00 | 0.00 | 49 | 1008.6 |
| 20260502150517 | 51 | 322 | 0.0 | 6.0 | 0.00 | 0.00 | 0.00 | 50 | 1008.6 |
| 20260502130552 | 45 | 288 | 4.0 | 8.0 | 0.00 | 0.00 | 0.00 | 49 | 1008.4 |
| 20260502123554 | 45 | 240 | 1.0 | 7.0 | 0.00 | 0.00 | 0.00 | 50 | 1008.4 |
| 20260502123051 | 45 | 325 | 0.0 | 6.0 | 0.00 | 0.00 | 0.00 | 50 | 1008.4 |
| 20260502122553 | 45 | 333 | 0.0 | 8.0 | 0.00 | 0.00 | 0.00 | 50 | 1008.4 |
| 20260502122055 | 45 | 342 | 2.0 | 9.0 | 0.00 | 0.00 | 0.00 | 50 | 1008.4 |
| 20260502121550 | 45 | 77 | 0.0 | 9.0 | 0.00 | 0.00 | 0.00 | 50 | 1008.4 |
| 20260502121049 | 45 | 341 | 3.0 | 9.0 | 0.00 | 0.00 | 0.00 | 50 | 1008.4 |
| 20260502120549 | 45 | 322 | 5.0 | 10.0 | 0.00 | 0.00 | 0.00 | 50 | 1008.4 |
| 20260502115548 | 45 | 37 | 2.0 | 9.0 | 0.00 | 0.00 | 0.00 | 50 | 1008.5 |
| 20260502115048 | 47 | 30 | 7.0 | 12.0 | 0.00 | 0.00 | 0.00 | 51 | 1008.5 |
| 20260502114603 | 46 | 42 | 7.0 | 14.0 | 0.00 | 0.00 | 0.00 | 51 | 1008.5 |
| 20260502114046 | 46 | 342 | 8.0 | 14.0 | 0.00 | 0.00 | 0.00 | 49 | 1008.5 |
| 20260502113548 | 46 | 314 | 6.0 | 12.0 | 0.00 | 0.00 | 0.00 | 50 | 1008.5 |
| 20260502113048 | 46 | 27 | 7.0 | 12.0 | 0.00 | 0.00 | 0.00 | 51 | 1008.5 |
| 20260502112542 | 47 | 17 | 6.0 | 13.0 | 0.00 | 0.00 | 0.00 | 50 | 1008.6 |
| 20260502112042 | 47 | 20 | 6.0 | 13.0 | 0.00 | 0.00 | 0.00 | 50 | 1008.5 |
| 20260502111547 | 47 | 14 | 6.0 | 13.0 | 0.00 | 0.00 | 0.00 | 51 | 1008.5 |
| 20260502111041 | 47 | 336 | 7.0 | 13.0 | 0.00 | 0.00 | 0.00 | 51 | 1008.5 |
| 20260502110541 | 47 | 12 | 6.0 | 12.0 | 0.00 | 0.00 | 0.00 | 52 | 1008.5 |
| 20260502110040 | 47 | 17 | 6.0 | 12.0 | 0.00 | 0.00 | 0.00 | 52 | 1008.5 |
| 20260502105543 | 47 | 52 | 6.0 | 12.0 | 0.00 | 0.00 | 0.00 | 52 | 1008.6 |
| 20260502105037 | 47 | 360 | 7.0 | 12.0 | 0.00 | 0.00 | 0.00 | 53 | 1008.6 |
| 20260502104547 | 48 | 15 | 5.0 | 13.0 | 0.00 | 0.00 | 0.00 | 51 | 1008.6 |
| 20260502104038 | 48 | 19 | 5.0 | 13.0 | 0.00 | 0.00 | 0.00 | 52 | 1008.5 |
| 20260502103536 | 48 | 336 | 6.0 | 10.0 | 0.00 | 0.00 | 0.00 | 52 | 1008.5 |
| 20260502103037 | 48 | 341 | 5.0 | 11.0 | 0.00 | 0.00 | 0.00 | 52 | 1008.6 |
| 20260502102635 | 48 | 344 | 8.0 | 12.0 | 0.00 | 0.00 | 0.00 | 53 | 1008.5 |
| 20260502102034 | 48 | 322 | 7.0 | 12.0 | 0.00 | 0.00 | 0.00 | 53 | 1008.5 |
| 20260502101549 | 48 | 324 | 5.0 | 11.0 | 0.00 | 0.00 | 0.00 | 52 | 1008.6 |
| 20260502101033 | 48 | 338 | 6.0 | 12.0 | 0.00 | 0.00 | 0.00 | 52 | 1008.5 |
| 20260502100534 | 48 | 349 | 7.0 | 13.0 | 0.00 | 0.00 | 0.00 | 53 | 1008.5 |
| 20260502091524 | 49 | 327 | 6.0 | 12.0 | 0.00 | 0.00 | 0.00 | 52 | 1009.0 |
| 20260502091023 | 49 | 331 | 5.0 | 12.0 | 0.00 | 0.00 | 0.00 | 51 | 1009.0 |
| 20260502090522 | 49 | 355 | 7.0 | 12.0 | 0.00 | 0.00 | 0.00 | 52 | 1009.1 |
| 20260502071507 | 51 | 325 | 6.0 | 11.0 | 0.00 | 0.00 | 0.00 | 43 | 1009.9 |
| 20260502071011 | 51 | 16 | 7.0 | 11.0 | 0.00 | 0.00 | 0.00 | 42 | 1009.9 |
| 20260502070507 | 51 | 315 | 6.0 | 10.0 | 0.00 | 0.00 | 0.00 | 42 | 1009.9 |
| 20260502070010 | 51 | 19 | 6.0 | 10.0 | 0.00 | 0.00 | 0.00 | 41 | 1009.9 |
| 20260502065507 | 51 | 29 | 5.0 | 12.0 | 0.00 | 0.00 | 0.00 | 41 | 1009.9 |
| 20260502065007 | 51 | 16 | 6.0 | 12.0 | 0.00 | 0.00 | 0.00 | 41 | 1009.8 |
| 20260502064506 | 51 | 57 | 6.0 | 13.0 | 0.00 | 0.00 | 0.00 | 40 | 1009.8 |
| 20260502064006 | 52 | 319 | 6.0 | 11.0 | 0.00 | 0.00 | 0.00 | 40 | 1009.8 |
| 20260502063506 | 51 | 331 | 7.0 | 13.0 | 0.00 | 0.00 | 0.00 | 40 | 1009.8 |
| 20260502063006 | 51 | 296 | 7.0 | 13.0 | 0.00 | 0.00 | 0.00 | 41 | 1009.8 |
| 20260502062506 | 51 | 342 | 6.0 | 12.0 | 0.00 | 0.00 | 0.00 | 42 | 1009.8 |
| 20260502062005 | 51 | 329 | 6.0 | 12.0 | 0.00 | 0.00 | 0.00 | 42 | 1009.8 |
| 20260502061505 | 51 | 9 | 7.0 | 12.0 | 0.00 | 0.00 | 0.00 | 42 | 1009.8 |